Aswan, Egypt

6:17 PM EET on February 06, 2016 (GMT +0200)
Aswan International

Weather History for HESN - October, 2012

Change the Weather History Date:

Saturday, October 20, 2012

  Actual Average Record
Temperature  
Mean Temperature 90 °F -  
Max Temperature 102 °F 86 °F 105 °F (2010)
Min Temperature 78 °F 64 °F 66 °F (2005)
Cooling Degree Days 25    
Growing Degree Days 40 (Base 50)    
Moisture  
Dew Point 59 °F    
Average Humidity 36    
Maximum Humidity 65    
Minimum Humidity 15    
Precipitation  
Precipitation 0.04 in 0.00 in - ()
Sea Level Pressure  
Sea Level Pressure 29.80 in    
Wind  
Wind Speed 7 mph ()    
Max Wind Speed 17 mph    
Max Gust Speed -    
Visibility 6.1 miles    
Events Thunderstorm    
Averages and records for this station are not official NWS values.
T = Trace of Precipitation, MM = Missing Value Source: Averaged Metar Reports

Daily Weather History Graph

Daily Weather History Graph

Search for Another Location

Airport or City:

Trip Planner

Search our weather history database for the weather conditions in past years. The results will help you decide how hot, cold, wet, or windy it might be!

Date:

Astronomy

Oct. 20, 2012 Rise Set
Actual Time 5:48 AM EET 5:18 PM EET
Civil Twilight 5:25 AM EET 5:41 PM EET
Nautical Twilight 4:59 AM EET 6:07 PM EET
Astronomical Twilight 4:32 AM EET 6:33 PM EET
Moon 10:47 AM EET (10/20) 9:58 PM EET (10/20)
Length of Visible Light 12h 15m
Length of Day
11h 29m
Waxing Crescent, 31% of the Moon is Illuminated
Oct 20
Waxing Crescent
Oct 22
First Quarter
Oct 29
Full
Nov 7
Last Quarter
Nov 14
New

Hourly Weather History & Observations

Time (EET) Temp. Heat Index Dew Point Humidity Pressure Visibility Wind Dir Wind Speed Gust Speed Precip Events Conditions
12:00 AM 87.8 °F 87.1 °F 59.0 °F 38% 29.80 in - East 9.2 mph - N/A   Clear
1:00 AM 87.8 °F 87.6 °F 60.8 °F 40% 29.80 in - East 9.2 mph - N/A   Clear
2:00 AM 86 °F - 60 °F 31% 29.74 in 6 mi ESE 9.2 mph - -  
2:00 AM 86.0 °F 86.1 °F 60.8 °F 43% 29.77 in - ESE 9.2 mph - N/A   Clear
3:00 AM 84.2 °F 83.8 °F 59.0 °F 42% 29.77 in - NNW 5.8 mph - N/A   Clear
4:00 AM 80.6 °F 80.8 °F 57.2 °F 45% 29.77 in - North 4.6 mph - N/A   Clear
5:00 AM 78.8 °F - 59.0 °F 51% 29.77 in - North 4.6 mph - N/A   Clear
6:00 AM 78.8 °F - 59.0 °F 51% 29.80 in - North 3.5 mph - N/A   Clear
7:00 AM 78.8 °F - 59.0 °F 51% 29.80 in - North 5.8 mph - N/A   Clear
8:00 AM 83 °F - 60 °F 36% 29.82 in 6 mi North 6.9 mph - -   Clear
8:00 AM 84.2 °F 84.4 °F 60.8 °F 45% 29.83 in - North 6.9 mph - N/A   Clear
9:00 AM 89.6 °F 89.5 °F 60.8 °F 38% 29.86 in - NNE 9.2 mph - N/A   Clear
10:00 AM 91.4 °F 92.1 °F 62.6 °F 38% 29.83 in - NNE 8.1 mph - N/A   Clear
11:00 AM 95.0 °F 97.0 °F 64.4 °F 36% 29.83 in - NNE 4.6 mph - N/A   Clear
12:00 PM 98.6 °F 98.5 °F 59.0 °F 27% 29.80 in - East 3.5 mph - N/A   Clear
1:00 PM 100.4 °F 100.2 °F 59.0 °F 25% 29.77 in - South 4.6 mph - N/A   Clear
2:00 PM 100 °F - 57 °F 15% 29.72 in 6 mi North 3.5 mph - -   Clear
2:00 PM 100.4 °F 99.7 °F 57.2 °F 24% 29.77 in - North 3.5 mph - N/A   Clear
3:00 PM 102.2 °F 101.4 °F 57.2 °F 22% 29.74 in - North 4.6 mph - N/A   Clear
4:00 PM 98.6 °F 98.5 °F 59.0 °F 27% 29.74 in - North 11.5 mph - N/A   Clear
5:00 PM 96.8 °F 95.8 °F 57.2 °F 27% 29.74 in 6.2 mi North 11.5 mph - N/A   Scattered Clouds
6:00 PM 95.0 °F 93.7 °F 57.2 °F 28% 29.77 in - North 9.2 mph - N/A   Clear
7:00 PM 91.4 °F - 48.2 °F 23% 29.83 in - North 13.8 mph - N/A   Clear
8:00 PM 89.6 °F - 48.2 °F 24% 29.83 in - North 11.5 mph - N/A   Clear
9:00 PM 89.6 °F - 48.2 °F 24% 29.89 in 6.2 mi NNE 17.3 mph - N/A Thunderstorm Thunderstorm
10:00 PM 78.8 °F - 66.2 °F 65% 29.86 in - ENE 17.3 mph - N/A   Clear
11:00 PM 78.8 °F - 64.4 °F 61% 29.86 in - NNE 11.5 mph - N/A   Clear